Regional Weather Roundup
Issued by NWS

Home | Current Version | Previous Version | Graphics & Text | Print | Product List | Glossary On
Versions: 1 2 3 4 5 6 7 8 9 10 11 12 13 14 15 16 17 18 19 20 21 22 23 24 25 26 27 28 29 30 31 32 33 34 35 36 37 38 39 40 41 42 43 44 45 46 47 48 49 50
000
ASUS43 KFSD 031710
RWRSD

WEATHER ROUNDUP FOR SOUTH DAKOTA
NATIONAL WEATHER SERVICE SIOUX FALLS SD
1100 AM CST SAT DEC 03 2016

NOTE: "FAIR" INDICATES FEW OR NO CLOUDS BELOW 12,000 FEET WITH NO
SIGNIFICANT WEATHER AND/OR OBSTRUCTIONS TO VISIBILITY.


SDZ001>005-009-010-012>017-031800-
NORTHWEST AND NORTH CENTRAL SOUTH DAKOTA

CITY           SKY/WX    TMP DP  RH WIND       PRES   REMARKS
BUFFALO          N/A     26  21  81 SW8       29.80F WCI  18
FAITH            N/A     22  21  96 S8        29.90S WCI  12
MOBRIDGE       SUNNY     32  25  75 SE14      29.95F WCI  22
$$

SDZ012>016-024>037-041>051-057-063-072>074-031800-
SOUTHWEST AND SOUTH CENTRAL SOUTH DAKOTA

CITY           SKY/WX    TMP DP  RH WIND       PRES   REMARKS
RAPID CTY ARPT SUNNY     32  24  72 CALM      29.89R
PIERRE         MOSUNNY   32  27  81 S14       29.97F WCI  22
CUSTER         SUNNY     28  12  51 VRB7      29.83R WCI  21
ELLSWORTH AFB  SUNNY     34  23  64 W6        29.88R WCI  28
PHILIP         SUNNY     35  26  69 SW8       29.93F WCI  29
PINE RIDGE     SUNNY     34  18  52 SW12      29.93F WCI  25
SPEARFISH      FAIR      34  12  40 W10G16    29.89S WCI  26
WINNER         PTSUNNY   40  29  64 S17       30.02F
$$

SDZ004>011-016>023-039-040-031800-
NORTHEAST SOUTH DAKOTA

CITY           SKY/WX    TMP DP  RH WIND       PRES   REMARKS
ABERDEEN       PTSUNNY   32  27  81 S18G24    30.09F WCI  20
WATERTOWN      CLOUDY    29  26  89 S18       30.10F WCI  16
BROOKINGS      MOSUNNY   32  28  85 S16       30.13F WCI  21
SISSETON         N/A     30  25  81 S18       30.14F WCI  18
$$

SDZ017-020-022-023-036>040-048>070-031800-
SOUTHEAST SOUTH DAKOTA

CITY           SKY/WX    TMP DP  RH WIND       PRES   REMARKS
SIOUX FALLS    NOT AVBL
HURON          PTSUNNY   30  28  92 S14       30.12F WCI  19
CHAMBERLAIN    CLOUDY    34  33  97 SE8       30.05F WCI  27
MITCHELL       CLOUDY    31  29  92 S9        30.16R WCI  23
YANKTON        CLOUDY    32  28  86 SE7       30.19F WCI  26
$$

ABBREVIATIONS USED IN REMARKS
   TC - TEMPERATURE IN CELSIUS
  WCI - WIND CHILL INDEX
   HX - HEAT INDEX
  VSB - VISIBILITY





USA.gov is the U.S. government's official web portal to all federal, state and local government web resources and services.